Regional Weather Roundup
Issued by NWS

Home | Current Version | Previous Version | Text Only | Print | Product List | Glossary On
Versions: 1 2 3 4 5 6 7 8 9 10 11 12 13 14 15 16 17 18 19 20 21 22 23 24 25 26 27 28 29 30 31 32 33 34 35 36 37 38 39 40 41 42 43 44 45 46 47 48 49 50
000
ASUS42 KTBW 270610
RWRFL
FLORIDA REGIONAL WEATHER ROUNDUP
NATIONAL WEATHER SERVICE TAMPA BAY RUSKIN FL
100 AM EST TUE JAN 27 2015

NOTE: "FAIR" INDICATES FEW OR NO CLOUDS BELOW 12,000 FEET WITH NO
SIGNIFICANT WEATHER AND/OR OBSTRUCTIONS TO VISIBILITY.


FLZ001>010-012>015-112-114-115-270700-
PANHANDLE FLORIDA

CITY           SKY/WX    TMP DP  RH WIND       PRES   REMARKS
PENSACOLA      CLEAR     43  34  70 NW6       30.04S WCI  39
PENSACOLA NAS  CLEAR     39  35  86 W3        30.04S
MILTON NAS     CLEAR     34  33  96 N3        30.04S
CRESTVIEW      CLEAR     37  32  82 NW3       30.04F
DUKE FIELD     CLEAR     38  33  82 CALM      30.01F
VALPARAISO     CLEAR     42  34  75 CALM      30.00F
MARY ESTHER    CLEAR     42  34  71 CALM      30.01F
TRI COUNTY     FAIR      38  35  89 CALM      30.03F
PANAMA CITY    FAIR      39  34  82 CALM      30.02F
TYNDALL AFB    CLEAR     47  38  68 NW7       30.04F WCI  44
APALACHICOLA   CLEAR     45  36  70 CALM      30.03S

STATION/POSITION SKY/WX   TEMP    WIND        PRES    WAVE   SWELL
                          AIR SEA DIR/SP/G            HT/PER HT/PER
                          (F)     (DEG/KT/KT) (MB)    (FT/S) (FT/S)
30.1N   87.6W              59 62  270/ 14/ 16 1016.6F   3/ 8   3/ 8
29.2N   88.2W              60 70  280/ 16/ 19 1018.3F   5/ 8   3/ 8
28.7N   86.0W              61 70  320/ 12/ 16 1017.1F   6/ 7   5/ 7
PANAMA CITY BEAC           47 59  330/  8/  9 1016.5F
CAPE SAN BLAS    NOT AVBL
TOWER C                    51     340/ 17/ 19 1016.4R
28.5N   84.5W              59 68  330/ 14/ 17 1016.4F   7/ 8   5/ 8

$$
FLZ011-016>038-118-127-128-134-139-239-270700-
NORTH FLORIDA

CITY           SKY/WX    TMP DP  RH WIND       PRES   REMARKS
MARIANNA       CLEAR     39  35  86 SW9       30.00F WCI  33
TALLAHASSEE    CLEAR     38  33  82 CALM      30.01S
PERRY          CLEAR     39  37  91 W3        30.01S
CROSS CITY       N/A     42  36  79 NW5       30.00R WCI  39
LAKE CITY      FAIR      39  34  81 W8        29.97S WCI  34
GAINESVILLE    CLEAR     43  35  73 W8        29.98R WCI  38
MAYPORT NAS    CLEAR     45  35  68 W9G22     29.93R WCI  40
JACKSONVILLE   CLEAR     43  34  70 NW10      29.93F WCI  37
JAX NAS        CLEAR     47  33  58 NW14G20   29.95S WCI  41
JAX CRAIG      CLEAR     45  33  63 NW16      29.93S WCI  38
JAX CECIL      CLEAR     43  32  65 W12       29.95S WCI  37
FERNANDINA BEA FAIR      48  36  61 NW13G22   29.91S WCI  43
ST AUGUSTINE   CLEAR     46  35  65 MISG      29.95R

STATION/POSITION SKY/WX   TEMP    WIND        PRES    WAVE   SWELL
                          AIR SEA DIR/SP/G            HT/PER HT/PER
                          (F)     (DEG/KT/KT) (MB)    (FT/S) (FT/S)
SHELL POINT      NOT AVBL
KEATON BEACH               47     320/  6/ 10 1016.4R
CEDAR KEY                  49     360/  7/  9 1015.9F
FERNANDINA                 45 57  290/ 14/ 20 1012.7S
30.7N   81.3W                 58                N/A     3/ 4
MAYPORT                    46 58  300/ 15/ 20   N/A
31.4N   80.9W              45 55  300/ 25/ 31 1010.9S   5/ 5
ST AUGUSTINE               46     290/ 12/ 16 1014.0R

$$
FLZ040-043>046-052-053-057-058-063-144-270700-
INTERIOR CENTRAL FLORIDA

CITY           SKY/WX    TMP DP  RH WIND       PRES   REMARKS
OCALA          CLEAR     45  36  70 NW7       29.98R WCI  41
THE VILLAGES     N/A     46  37  71 W12       29.88R WCI  41
LEESBURG       CLEAR     48  38  68 NW12      29.98S WCI  43
SANFORD        CLEAR     48  38  68 NW12      29.95S WCI  43
ORLANDO EXEC   CLEAR     50  38  63 W10       29.96S
ORLANDO INTL   CLEAR     50  41  71 NW10      29.97R
WINTER HAVEN   CLEAR     51  45  79 NW12      29.99R
LAKELAND       PTCLDY    50  45  81 NW6       29.98S
BARTOW         FAIR      50  45  81 W6        29.98S
OKEECHOBEE     CLEAR     48  45  87 W5        29.99S

$$
FLZ041-047-054-059-064-141-147-270700-
EAST CENTRAL FLORIDA

CITY           SKY/WX    TMP DP  RH WIND       PRES   REMARKS
DAYTONA BEACH  CLEAR     48  37  65 W10G20    29.94S WCI  43
DELAND         CLEAR     45  37  76 NW10      29.96R WCI  39
JFK SPACE CTR  CLEAR     50  40  67 NW15      29.92F WCI  44
CAPE CANAVERAL CLEAR     51  41  68 NW21      29.93S
PATRICK AFB    CLEAR     51  46  81 W12       29.95R
MELBOURNE      CLEAR     51  45  79 W9        29.95R
VERO BEACH     CLEAR     50  45  83 W8        29.96S
FT PIERCE      CLEAR     48  45  89 W3        29.97R
STUART         CLEAR     52  45  76 NW8       29.99R

STATION/POSITION SKY/WX   TEMP    WIND        PRES    WAVE   SWELL
                          AIR SEA DIR/SP/G            HT/PER HT/PER
                          (F)     (DEG/KT/KT) (MB)    (FT/S) (FT/S)
28.5N   80.2W              56 70  300/ 25/ 29 1012.7R
28.9N   78.5W              64 76  290/ 25/ 35 1009.1S  11/ 9   2/13
TRIDENT PIER               53 63  290/ 11/ 16 1013.1F
28.4N   80.5W                 64                N/A     2/ 2
27.6N   80.2W                 73                N/A     3/ 6

$$
FLZ050-056-061-142-242-148-248-149-249-151-251-155-255-
160-260-270700-
WEST CENTRAL FLORIDA

CITY           SKY/WX    TMP DP  RH WIND       PRES   REMARKS
CRYSTAL RIVER  FAIR      46  36  66 NW5       29.99S WCI  44
INVERNESS      FAIR      45  37  76 N3        29.99S
BROOKSVILLE    CLEAR     48  41  76 N6        29.99S
ZEPHYRHILLS    FAIR      50  41  71 NW5       29.99F
CLEARWATER     PTCLDY    56  47  71 NW15      29.99S
TAMPA INTL     PTCLDY    54  44  69 NW7       29.99S
TAMPA EXEC     CLEAR     55  45  67 N6        29.99S
PLANT CITY       N/A    N/A N/A N/A MISG        N/A
MACDILL AFB    PTCLDY    56  48  74 N10       29.99S
PETER O KNIGHT PTCLDY    57  46  67 NW5       29.99S
ST PETERSBURG  MOCLDY    58  45  62 NW6       29.97F
SARASOTA       PTCLDY    57  45  64 NW12      29.98F
VENICE         MOCLDY    59  48  67 NW18G29   30.00F

STATION/POSITION SKY/WX   TEMP    WIND        PRES    WAVE   SWELL
                          AIR SEA DIR/SP/G            HT/PER HT/PER
                          (F)     (DEG/KT/KT) (MB)    (FT/S) (FT/S)
CEDAR KEY                  49     360/  7/  9 1015.9F
28.5N   84.5W              59 68  330/ 14/ 17 1016.4F   7/ 8   5/ 8
27.3N   84.3W                 72                N/A     9/ 9   2/11
CLEARWATER BEACH           58 62  330/ 18/ 22 1015.2R
MIDDLE TAMPA BAY           58     330/ 14/ 17 1015.5F
VENICE                     60 65  320/ 21/ 24 1015.3F

$$
FLZ066-069-070-075>078-162-262-165-265-270700-
SOUTHWEST FLORIDA AND KEYS

CITY           SKY/WX    TMP DP  RH WIND       PRES   REMARKS
PUNTA GORDA    CLEAR     55  47  74 NW10      30.01S
FT MYERS       PTCLDY    59  49  69 NW10      29.99R
SOUTHWEST INTL PTCLDY    58  49  72 VRB6      30.00R
NAPLES         CLEAR     63  47  55 NW14G26   29.99F
MARCO ISLAND   PTCLDY   N/A N/A N/A NW13G18   29.99S
IMMOKALEE      CLEAR     48  48 100 CALM      30.01S
MARATHON       MOCLDY    67  54  63 NW13      30.00S
KEY WEST NAS   MOCLDY    66  53  63 NW14G24   30.02S
KEY WEST INTL  MOCLDY    66  55  67 NW15G24   30.02S

STATION/POSITION SKY/WX   TEMP    WIND        PRES    WAVE   SWELL
                          AIR SEA DIR/SP/G            HT/PER HT/PER
                          (F)     (DEG/KT/KT) (MB)    (FT/S) (FT/S)
VENICE                     60 65  320/ 21/ 24 1015.3F
NAPLES                     64 74  320/ 21/ 26 1016.0F
26.0N   85.6W              65 73  330/ 17/ 19 1017.8F   9/ 8   5/13
DRY TORTUGAS               67     320/ 22/ 23 1016.7S
NW FL BAY                  68     320/ 16/ 18 1016.1R
SAND KEY                   68     320/ 22/ 27 1016.5F
SOMBRERO KEY               67     300/ 21/ 24 1016.4R
LONG KEY                   67 68  320/ 19/ 21 1016.5R
MOLASSES REEF              64 74  330/ 18/ 19 1015.6R

$$
FLZ067-068-071>074-168-172>174-270700-
SOUTHEAST FLORIDA

CITY           SKY/WX    TMP DP  RH WIND       PRES   REMARKS
W PALM BEACH   CLEAR     55  48  77 W9        29.97S
FT LAUDER-EXEC CLEAR     56  49  77 W7        29.99S
FT LAUDERDALE  PTCLDY    57  49  74 W7        29.98F
POMPANO BEACH  CLEAR     58  48  69 NW13      29.98F
PEMBROKE PINES CLEAR     58  49  72 W10       30.00F
OPA LOCKA      MOCLDY    59  50  72 NW9       30.00S
MIAMI          PTCLDY    58  51  78 W5        30.00S
WEST KENDALL   CLEAR     53  50  89 W6        30.00S
HOMESTEAD      CLEAR     56  50  80 W6        30.00S

STATION/POSITION SKY/WX   TEMP    WIND        PRES    WAVE   SWELL
                          AIR SEA DIR/SP/G            HT/PER HT/PER
                          (F)     (DEG/KT/KT) (MB)    (FT/S) (FT/S)
PORT EVERGLADES            59     290/ 10/ 15 1015.0
VIRGINIA KEY               61 69  300/  8/ 13 1016.0S
LAKE WORTH                 56 73  290/  6/  9 1014.7R
SETTLEMENT POINT           63     300/ 27/ 30 1014.0S

$$




USA.gov is the U.S. government's official web portal to all federal, state and local government web resources and services.